Location: Walnut Point State Park
(39.6958°N, 88.0345°W)
Time: 18:58:10
(UTC-05:00)

Amateur Radio Satellites - All Passes

Search period start: 26 June 2017 18:28
Search period end: 27 June 2017 18:28
Location: Walnut Point State Park, 39.6958°N, 88.0345°W

Satellite Date Start Highest point End Downlink Frequencies (MHz)
Time Altitude Azimuth
DOVE 4 26 Jun 18:38:15 18:41:34 23° 266° (W) 18:45:00 437.250
SEEDS 26 Jun 18:40:33 18:43:07 16° 66° (ENE) 18:45:41 437.485
NUDT-PHONESAT 26 Jun 18:44:37 18:48:16 49° 260° (W) 18:51:57 437.300
HO-68 26 Jun 18:55:21 19:02:21 58° 69° (ENE) 19:09:22 435.675
CUTE 1.7 + AOD 2 26 Jun 18:58:41 19:02:39 40° 72° (ENE) 19:06:37 437.475
CUTE-I 26 Jun 19:00:15 19:05:16 42° 261° (W) 19:10:21 437.470
XW-2F 26 Jun 19:04:42 19:07:46 23° 265° (W) 19:10:50 145.980 - 146.000
KKS-1 26 Jun 19:05:11 19:07:47 15° 296° (WNW) 19:10:23 437.445
XW-2D 26 Jun 19:09:56 19:12:41 19° 266° (W) 19:15:26 145.860 - 145.880
XW-2A 26 Jun 19:15:49 19:19:05 41° 74° (ENE) 19:22:22 145.665 - 145.685
XW-2B 26 Jun 19:19:29 19:21:47 15° 267° (W) 19:24:04 145.730 - 145.750
LilacSat-2 26 Jun 19:20:28 19:22:33 14° 268° (W) 19:24:40 437.200
CUBEBUG 2 26 Jun 19:22:04 19:26:19 39° 71° (ENE) 19:30:41 437.445
STRAND 1 26 Jun 19:25:42 19:29:44 23° 94° (E) 19:33:43 437.568
AAUSAT CUBESAT 2 26 Jun 19:27:00 19:30:18 24° 69° (ENE) 19:33:36 437.432
RS-15 26 Jun 19:30:07 19:39:42 29° 102° (ESE) 19:49:26 29.354- 29.394
STARS 26 Jun 19:31:07 19:34:07 18° 295° (WNW) 19:37:08 437.465
Oscar 11 26 Jun 19:37:54 19:39:52 13° 64° (ENE) 19:41:50 .
ZACube-1 26 Jun 19:46:00 19:49:40 24° 68° (ENE) 19:53:20 437.345
UWE-3 26 Jun 19:52:58 19:57:23 49° 73° (ENE) 20:01:54 435.000/436.395/437.385
BEESAT 3 26 Jun 19:57:18 20:00:09 19° 111° (ESE) 20:03:01 437.485
SEEDS 26 Jun 20:14:28 20:18:27 41° 262° (W) 20:22:26 437.485
PCSat 26 Jun 20:23:27 20:28:10 29° 51° (NE) 20:32:51 145.827
CUTE 1.7 + AOD 2 26 Jun 20:35:57 20:38:38 16° 268° (W) 20:41:18 437.475
AO-85 26 Jun 20:42:09 20:46:14 73° 302° (WNW) 20:50:11 145.980
DELFI C3 26 Jun 20:43:03 20:45:23 15° 67° (ENE) 20:47:44 145.870
HO-68 26 Jun 20:44:35 20:50:24 26° 266° (W) 20:56:15 435.675
AO-73 26 Jun 20:45:13 20:49:45 88° 250° (WSW) 20:54:22 145.935
BEESAT 2 26 Jun 20:58:25 21:01:55 30° 114° (ESE) 21:05:29 435.950
CUBEBUG 2 26 Jun 20:59:40 21:03:03 20° 267° (W) 21:06:30 437.445
AAUSAT CUBESAT 2 26 Jun 21:02:11 21:05:38 26° 264° (W) 21:09:06 437.432
STRAND 1 26 Jun 21:04:13 21:09:02 41° 290° (WNW) 21:13:49 437.568
Oscar 11 26 Jun 21:11:13 21:15:29 58° 260° (W) 21:19:47 .
NO-84 26 Jun 21:12:43 21:16:25 52° 132° (SE) 21:20:26 435.350 FM
FO-29 26 Jun 21:21:04 21:26:54 22° 90° (E) 21:32:36 435.910
EO-88 26 Jun 21:21:30 21:24:38 27° 71° (ENE) 21:27:46 145.990 - 145.960
ZACube-1 26 Jun 21:21:40 21:25:44 32° 264° (W) 21:29:52 437.345
UWE-3 26 Jun 21:31:21 21:34:07 16° 269° (W) 21:36:54 435.000/436.395/437.385
YUBILEINY 26 Jun 21:31:58 21:40:13 47° 88° (E) 21:48:31 435.215
BEESAT 3 26 Jun 21:33:47 21:37:28 35° 308° (NW) 21:41:12 437.485
RS-15 26 Jun 21:38:43 21:50:54 80° 303° (WNW) 22:03:22 29.354- 29.394
O/OREOS (USA 219) 26 Jun 21:38:56 21:43:29 88° 288° (WNW) 21:48:02 437.305
TIGRISAT 26 Jun 21:41:49 21:43:34 12° 89° (E) 21:45:18 435.000
SO-50 26 Jun 21:59:02 22:02:25 20° 45° (NE) 22:05:48 436.795
PCSat 26 Jun 22:06:36 22:11:39 40° 249° (WSW) 22:16:40 145.827
ESTCUBE 1 26 Jun 22:09:51 22:11:00 11° 62° (ENE) 22:12:09 437.505/2401.250
DELFI C3 26 Jun 22:16:12 22:19:51 37° 262° (W) 22:23:30 145.870
M-CUBED/EXP-1 PRIME 26 Jun 22:17:03 22:20:39 40° 105° (ESE) 22:24:31 437.505
UNISAT 6 26 Jun 22:22:15 22:26:33 36° 97° (E) 22:30:44 437.425
BEESAT 2 26 Jun 22:36:25 22:39:41 24° 311° (NW) 22:43:00 435.950
PRISM 26 Jun 22:43:08 22:47:12 60° 102° (ESE) 22:51:15 437.425
NO-84 26 Jun 22:50:52 22:54:15 25° 331° (NNW) 22:57:48 435.350 FM
EO-88 26 Jun 22:55:48 22:58:18 17° 266° (W) 23:00:50 145.990 - 145.960
FO-29 26 Jun 23:04:38 23:12:29 76° 287° (WNW) 23:20:11 435.910
LO-87 26 Jun 23:12:27 23:16:00 90° 85° (E) 23:19:36 145.935 - 145.965
TIGRISAT 26 Jun 23:16:04 23:20:41 63° 285° (WNW) 23:25:09 435.000
YUBILEINY 26 Jun 23:29:11 23:37:08 37° 288° (WNW) 23:45:12 435.215
EO-79 26 Jun 23:31:09 23:32:08 11° 90° (E) 23:33:07 145.935-145.965
SO-50 26 Jun 23:38:45 23:43:08 50° 243° (WSW) 23:47:32 436.795
VELOX 1 26 Jun 23:39:02 23:42:28 23° 67° (ENE) 23:45:55 145.980
ESTCUBE 1 26 Jun 23:42:39 23:47:09 75° 257° (WSW) 23:51:40 437.505/2401.250
DUCHIFAT 1 26 Jun 23:42:51 23:44:25 12° 91° (E) 23:45:59 145.980
SPROUT 26 Jun 23:48:41 23:52:25 30° 70° (ENE) 23:56:11 437.525
NANOSAT C BR1 26 Jun 23:51:06 23:53:55 17° 93° (E) 23:56:42 145.865
M-CUBED/EXP-1 PRIME 26 Jun 23:52:34 23:54:50 15° 297° (WNW) 23:57:12 437.505
RS-15 26 Jun 23:55:23 00:05:44 30° 330° (NNW) 00:16:08 29.354- 29.394
DX 1 26 Jun 23:56:05 23:57:34 12° 62° (ENE) 23:59:03 434.975-435.025
UNISAT 6 26 Jun 23:59:28 00:02:59 22° 294° (WNW) 00:06:27 437.425
AIST 2D 27 Jun 00:06:55 00:10:25 70° 100° (E) 00:13:52 435.315
UKube-1 27 Jun 00:10:28 00:11:41 11° 62° (ENE) 00:12:53 .
PRISM 27 Jun 00:20:38 00:21:56 11° 297° (WNW) 00:23:16 437.425
50 SAT 27 Jun 00:21:20 00:24:08 25° 71° (ENE) 00:26:56 437.505
POLYITAN 1 27 Jun 00:29:09 00:33:21 52° 100° (E) 00:37:29 437.675
NO-84 27 Jun 00:31:51 00:33:08 11° 351° (N) 00:34:25 435.350 FM
QB50P2 27 Jun 00:40:00 00:44:18 78° 103° (ESE) 00:48:33 145.880/145.840
BUGSAT 1 27 Jun 00:45:45 00:48:44 18° 94° (E) 00:51:40 437.445
FO-29 27 Jun 00:51:47 00:56:13 17° 305° (NW) 01:00:40 435.910
EO-79 27 Jun 01:04:02 01:08:16 61° 285° (WNW) 01:12:27 145.935-145.965
VELOX 1 27 Jun 01:14:53 01:18:44 30° 263° (W) 01:22:38 145.980
DUCHIFAT 1 27 Jun 01:16:14 01:20:24 55° 286° (WNW) 01:24:32 145.980
SPROUT 27 Jun 01:25:02 01:28:19 22° 266° (W) 01:31:38 437.525
NANOSAT C BR1 27 Jun 01:25:47 01:29:45 38° 288° (WNW) 01:33:40 145.865
DX 1 27 Jun 01:28:54 01:33:10 66° 258° (WSW) 01:37:30 434.975-435.025
Gurwin Techsat 1B 27 Jun 01:30:29 01:33:12 14° 90° (E) 01:35:55 435.225
UKube-1 27 Jun 01:42:50 01:47:06 68° 257° (WSW) 01:51:24 .
50 SAT 27 Jun 01:54:48 01:56:55 16° 266° (W) 01:59:02 437.505
ITUPSAT 1 27 Jun 02:00:44 02:03:59 18° 64° (ENE) 02:07:12 437.325
Oscar 19 27 Jun 02:02:28 02:07:24 46° 100° (E) 02:12:19 437.125/150
POLYITAN 1 27 Jun 02:06:28 02:08:39 14° 296° (WNW) 02:10:50 437.675
BEESAT 27 Jun 02:09:09 02:12:49 22° 66° (ENE) 02:16:29 436.000
NO-84 27 Jun 02:10:33 02:12:23 12° 13° (NNE) 02:14:15 435.350 FM
RS-15 27 Jun 02:15:28 02:24:03 21° 6° (N) 02:32:29 29.354- 29.394
BUGSAT 1 27 Jun 02:20:17 02:24:10 35° 289° (WNW) 02:28:01 437.445
MOZHAYETS 4 27 Jun 03:02:19 03:06:45 46° 72° (ENE) 03:11:11
Gurwin Techsat 1B 27 Jun 03:08:19 03:13:37 69° 286° (WNW) 03:18:54 435.225
ITUPSAT 1 27 Jun 03:36:45 03:41:23 49° 260° (W) 03:46:04 437.325
Oscar 19 27 Jun 03:42:37 03:46:22 21° 296° (WNW) 03:50:07 437.125/150
BEESAT 27 Jun 03:45:53 03:50:20 38° 262° (W) 03:54:48 436.000
NO-84 27 Jun 03:47:10 03:51:08 32° 33° (NNE) 03:55:02 435.350 FM
CUBESAT XI-V 27 Jun 03:48:17 03:52:06 26° 69° (ENE) 03:55:56 437.345
AO-7 27 Jun 04:12:57 04:21:12 58° 103° (ESE) 04:29:23 .
BEESAT 3 27 Jun 04:15:13 04:16:43 12° 41° (NE) 04:18:13 437.485
ITAMSAT 1 27 Jun 04:22:26 04:27:41 77° 103° (ESE) 04:32:54 435.822/435.867
KKS-1 27 Jun 04:24:20 04:28:30 42° 71° (ENE) 04:32:42 437.445
RS-15 27 Jun 04:30:15 04:41:30 39° 39° (NE) 04:52:13 29.354- 29.394
MOZHAYETS 4 27 Jun 04:41:09 04:44:07 17° 268° (W) 04:47:05
STARS 27 Jun 04:49:36 04:53:32 33° 70° (ENE) 04:57:29 437.465
AO-85 27 Jun 05:13:23 05:17:31 69° 57° (ENE) 05:21:55 145.980
BEESAT 2 27 Jun 05:17:01 05:19:48 17° 46° (NE) 05:22:32 435.950
NO-84 27 Jun 05:24:41 05:28:49 42° 230° (SW) 05:32:49 435.350 FM
CUBESAT XI-V 27 Jun 05:25:18 05:29:21 30° 264° (W) 05:33:25 437.345
BEESAT 3 27 Jun 05:50:50 05:54:52 83° 237° (WSW) 05:58:48 437.485
KKS-1 27 Jun 06:02:25 06:05:14 17° 267° (W) 06:08:05 437.445
ITAMSAT 1 27 Jun 06:03:52 06:06:28 14° 300° (WNW) 06:09:03 435.822/435.867
AO-7 27 Jun 06:06:20 06:13:31 33° 301° (WNW) 06:20:42 .
O/OREOS (USA 219) 27 Jun 06:11:47 06:14:32 16° 55° (NE) 06:17:16 437.305
NUDT-PHONESAT 27 Jun 06:16:50 06:19:02 15° 93° (E) 06:21:12 437.300
STARS 27 Jun 06:26:36 06:29:54 21° 265° (W) 06:33:14 437.465
DOVE 4 27 Jun 06:35:35 06:40:34 88° 100° (E) 06:45:47 437.250
XW-2F 27 Jun 06:36:52 06:40:20 34° 98° (E) 06:43:44 145.980 - 146.000
STRAND 1 27 Jun 06:40:37 06:45:04 30° 68° (ENE) 06:49:32 437.568
XW-2D 27 Jun 06:42:00 06:45:37 44° 99° (E) 06:49:12 145.860 - 145.880
RS-15 27 Jun 06:42:58 06:54:58 72° 245° (WSW) 07:06:19 29.354- 29.394
XW-2B 27 Jun 06:50:58 06:54:42 56° 100° (E) 06:58:22 145.730 - 145.750
LilacSat-2 27 Jun 06:52:21 06:56:08 64° 101° (ESE) 06:59:51 437.200
BEESAT 2 27 Jun 06:53:53 06:57:48 48° 243° (WSW) 07:01:40 435.950
Tancredo 1 27 Jun 06:54:38 06:57:11 25° 134° (SE) 06:59:45 437.200
AO-85 27 Jun 06:56:24 06:57:26 11° 251° (WSW) 06:58:30 145.980
XW-2C 27 Jun 07:06:31 07:10:18 86° 283° (WNW) 07:14:03 145.795 - 145.815
KAITUO 1B 27 Jun 07:16:14 07:19:58 85° 284° (WNW) 07:23:38 145.475/437.950
CUTE-I 27 Jun 07:17:36 07:23:02 83° 105° (ESE) 07:28:24 437.470
ISS 27 Jun 07:34:36 07:37:33 32° 135° (SE) 07:40:31 437.550
YUBILEINY 27 Jun 07:43:47 07:50:18 22° 65° (ENE) 07:56:45 435.215
UWE-3 27 Jun 07:46:13 07:47:16 11° 88° (E) 07:48:19 435.000/436.395/437.385
NUDT-PHONESAT 27 Jun 07:49:43 07:53:00 31° 288° (WNW) 07:56:16 437.300
O/OREOS (USA 219) 27 Jun 07:49:55 07:54:16 52° 252° (WSW) 07:58:35 437.305
SEEDS 27 Jun 07:58:55 08:02:39 31° 97° (E) 08:06:21 437.485
XW-2A 27 Jun 08:10:49 08:14:09 49° 100° (E) 08:17:25 145.665 - 145.685
HO-68 27 Jun 08:11:16 08:18:25 65° 103° (ESE) 08:25:31 435.675
XW-2F 27 Jun 08:12:00 08:14:08 15° 293° (WNW) 08:16:16 145.980 - 146.000
DOVE 4 27 Jun 08:16:05 08:17:34 11° 298° (WNW) 08:19:05 437.250
XW-2D 27 Jun 08:17:53 08:19:23 12° 295° (WNW) 08:20:52 145.860 - 145.880
CUTE 1.7 + AOD 2 27 Jun 08:19:35 08:23:48 89° 275° (W) 08:27:59 437.475
STRAND 1 27 Jun 08:19:38 08:24:09 31° 264° (W) 08:28:43 437.568
Tancredo 1 27 Jun 08:29:58 08:32:41 30° 330° (NNW) 08:35:26 437.200
AO-73 27 Jun 08:35:07 08:38:13 19° 92° (E) 08:41:16 145.935
TIGRISAT 27 Jun 08:40:43 08:41:46 11° 61° (ENE) 08:42:49 435.000
AAUSAT CUBESAT 2 27 Jun 08:44:08 08:48:07 47° 99° (E) 08:52:05 437.432
CUBEBUG 2 27 Jun 08:49:47 08:54:31 84° 283° (WNW) 08:59:04 437.445
RS-15 27 Jun 08:59:27 09:04:59 15° 265° (W) 09:10:25 29.354- 29.394
Oscar 11 27 Jun 08:59:32 09:03:10 26° 95° (E) 09:06:47 .
CUTE-I 27 Jun 08:59:50 09:02:19 13° 300° (WNW) 09:04:48 437.470
M-CUBED/EXP-1 PRIME 27 Jun 09:02:55 09:06:00 38° 68° (ENE) 09:09:03 437.505
ZACube-1 27 Jun 09:10:21 09:14:43 52° 99° (E) 09:18:56 437.345
ISS 27 Jun 09:11:07 09:14:02 29° 332° (NNW) 09:16:58 437.550
FO-29 27 Jun 09:15:41 09:21:30 46° 68° (ENE) 09:28:04 435.910
UWE-3 27 Jun 09:19:38 09:24:12 67° 285° (WNW) 09:28:35 435.000/436.395/437.385
UNISAT 6 27 Jun 09:20:01 09:24:00 30° 69° (ENE) 09:28:03 437.425
PRISM 27 Jun 09:31:29 09:35:12 36° 71° (ENE) 09:38:56 437.425
SEEDS 27 Jun 09:35:03 09:38:07 20° 292° (WNW) 09:41:10 437.485
YUBILEINY 27 Jun 09:39:14 09:48:04 78° 266° (W) 09:56:49 435.215
DELFI C3 27 Jun 09:53:53 09:57:13 26° 96° (E) 10:00:34 145.870
HO-68 27 Jun 10:00:01 10:05:33 25° 301° (WNW) 10:11:04 435.675
Tancredo 1 27 Jun 10:08:24 10:09:01 10° 350° (N) 10:09:38 437.200
AO-73 27 Jun 10:10:31 10:14:34 36° 289° (WNW) 10:18:31 145.935
TIGRISAT 27 Jun 10:13:06 10:17:42 82° 258° (WSW) 10:22:25 435.000
AAUSAT CUBESAT 2 27 Jun 10:21:04 10:23:08 14° 295° (WNW) 10:25:13 437.432
EO-88 27 Jun 10:24:03 10:27:29 38° 98° (E) 10:30:53 145.990 - 145.960
Oscar 11 27 Jun 10:35:39 10:39:12 25° 291° (WNW) 10:42:43 .
AIST 2D 27 Jun 10:40:47 10:43:33 21° 70° (ENE) 10:46:18 435.315
NANOSAT C BR1 27 Jun 10:43:31 10:45:15 12° 63° (ENE) 10:46:59 145.865
ZACube-1 27 Jun 10:48:06 10:50:30 14° 296° (WNW) 10:52:51 437.345
ISS 27 Jun 10:50:09 10:51:21 11° 351° (N) 10:52:33 437.550
UNISAT 6 27 Jun 10:56:47 11:00:38 26° 265° (W) 11:04:35 437.425
FO-29 27 Jun 11:01:36 11:06:47 29° 268° (W) 11:12:34 435.910
PCSat 27 Jun 11:04:31 11:09:07 29° 108° (ESE) 11:13:45 145.827
PRISM 27 Jun 11:08:04 11:10:35 16° 266° (W) 11:13:08 437.425
POLYITAN 1 27 Jun 11:20:41 11:24:33 34° 71° (ENE) 11:28:27 437.675
DELFI C3 27 Jun 11:28:49 11:31:51 21° 291° (WNW) 11:34:53 145.870
QB50P2 27 Jun 11:31:21 11:35:28 50° 73° (ENE) 11:39:37 145.880/145.840
BUGSAT 1 27 Jun 11:35:56 11:37:35 12° 63° (ENE) 11:39:15 437.445
ESTCUBE 1 27 Jun 11:36:24 11:40:01 24° 95° (E) 11:43:37 437.505/2401.250
YUBILEINY 27 Jun 11:39:24 11:43:17 14° 285° (WNW) 11:47:10 435.215
Tancredo 1 27 Jun 11:45:10 11:45:44 10° 10° (N) 11:46:16 437.200
EO-79 27 Jun 11:54:58 11:59:13 86° 72° (ENE) 12:03:31 145.935-145.965
EO-88 27 Jun 11:59:06 12:00:47 13° 294° (WNW) 12:02:27 145.990 - 145.960
DUCHIFAT 1 27 Jun 12:06:30 12:10:43 87° 257° (WSW) 12:15:00 145.980
LO-87 27 Jun 12:13:21 12:16:58 63° 284° (WNW) 12:20:33 145.935 - 145.965
AIST 2D 27 Jun 12:13:56 12:16:39 20° 265° (W) 12:19:23 435.315
NANOSAT C BR1 27 Jun 12:16:15 12:20:25 59° 259° (W) 12:24:39 145.865
ISS 27 Jun 12:27:28 12:29:00 13° 12° (NNE) 12:30:32 437.550
PCSat 27 Jun 12:47:18 12:52:20 39° 306° (NW) 12:57:25 145.827
Gurwin Techsat 1B 27 Jun 12:50:17 12:54:18 22° 64° (ENE) 12:58:19 435.225
POLYITAN 1 27 Jun 12:57:20 13:00:24 19° 266° (W) 13:03:29 437.675
VELOX 1 27 Jun 13:04:52 13:09:12 50° 100° (E) 13:13:31 145.980
BUGSAT 1 27 Jun 13:08:21 13:12:24 57° 259° (W) 13:16:33 437.445
QB50P2 27 Jun 13:09:30 13:11:31 13° 269° (W) 13:13:34 145.880/145.840
SPROUT 27 Jun 13:10:08 13:14:26 66° 101° (ESE) 13:18:42 437.525
ESTCUBE 1 27 Jun 13:12:54 13:16:49 30° 290° (WNW) 13:20:43 437.505/2401.250
50 SAT 27 Jun 13:16:39 13:19:38 27° 97° (E) 13:22:37 437.505
Oscar 19 27 Jun 13:18:20 13:23:25 63° 73° (ENE) 13:28:30 437.125/150
DX 1 27 Jun 13:18:20 13:21:45 22° 95° (E) 13:25:09 434.975-435.025
Tancredo 1 27 Jun 13:19:20 13:22:04 29° 29° (NNE) 13:24:47 437.200
AO-7 27 Jun 13:23:00 13:27:37 16° 48° (NE) 13:32:15 .
UKube-1 27 Jun 13:31:16 13:34:30 20° 95° (E) 13:37:42 .
SO-50 27 Jun 13:51:42 13:56:12 62° 119° (ESE) 14:00:41 436.795
ISS 27 Jun 14:03:05 14:06:12 38° 32° (NNE) 14:09:19 437.550
ITAMSAT 1 27 Jun 14:03:22 14:05:55 14° 60° (ENE) 14:08:30 435.822/435.867
Gurwin Techsat 1B 27 Jun 14:28:49 14:33:54 46° 261° (W) 14:39:01 435.225
JUGNU 27 Jun 14:35:28 14:36:08 10° 182° (S) 14:36:49 437.505
VELOX 1 27 Jun 14:42:38 14:45:13 15° 296° (WNW) 14:47:47 145.980
SPROUT 27 Jun 14:48:22 14:49:45 11° 297° (WNW) 14:51:08 437.525
50 SAT 27 Jun 14:50:11 14:52:11 15° 292° (WNW) 14:54:11 437.505
DX 1 27 Jun 14:54:04 14:57:56 31° 290° (WNW) 15:01:48 434.975-435.025
Tancredo 1 27 Jun 14:54:58 14:57:35 26° 226° (SW) 15:00:12 437.200
Oscar 19 27 Jun 15:00:21 15:03:08 15° 269° (W) 15:05:55 437.125/150
MOZHAYETS 4 27 Jun 15:00:34 15:01:51 11° 90° (E) 15:03:07
UKube-1 27 Jun 15:06:40 15:10:34 33° 290° (WNW) 15:14:27 .
AO-7 27 Jun 15:10:41 15:18:55 72° 69° (ENE) 15:27:15 .
SO-50 27 Jun 15:34:00 15:37:03 17° 316° (NW) 15:40:06 436.795
ITUPSAT 1 27 Jun 15:37:53 15:42:28 44° 99° (E) 15:47:00 437.325
ITAMSAT 1 27 Jun 15:39:30 15:44:42 77° 257° (WSW) 15:49:57 435.822/435.867
ISS 27 Jun 15:39:53 15:42:32 23° 227° (SW) 15:45:11 437.550
BEESAT 27 Jun 15:46:17 15:51:00 55° 101° (E) 15:55:39 436.000
SRMSAT 27 Jun 16:24:56 16:25:20 10° 177° (S) 16:25:43 437.500
MOZHAYETS 4 27 Jun 16:34:53 16:39:26 67° 285° (WNW) 16:43:56
CUTE-I 27 Jun 17:01:19 17:04:30 16° 61° (ENE) 17:07:42 437.470
AO-7 27 Jun 17:05:59 17:12:19 24° 266° (W) 17:18:43 .
ITUPSAT 1 27 Jun 17:16:32 17:19:57 20° 295° (WNW) 17:23:21 437.325
XW-2F 27 Jun 17:17:44 17:20:08 16° 67° (ENE) 17:22:33 145.980 - 146.000
CUBESAT XI-V 27 Jun 17:21:43 17:26:19 71° 101° (E) 17:30:54 437.345
XW-2D 27 Jun 17:22:51 17:25:42 20° 69° (ENE) 17:28:33 145.860 - 145.880
BEESAT 27 Jun 17:25:25 17:28:17 16° 297° (WNW) 17:31:09 436.000
XW-2B 27 Jun 17:31:36 17:34:44 24° 70° (ENE) 17:37:51 145.730 - 145.750
LilacSat-2 27 Jun 17:33:26 17:36:45 28° 71° (ENE) 17:40:03 437.200
DOVE 4 27 Jun 17:40:34 17:44:42 78° 77° (ENE) 17:49:02 437.250
XW-2C 27 Jun 17:46:42 17:50:16 37° 73° (ENE) 17:53:50 145.795 - 145.815
KKS-1 27 Jun 17:51:59 17:56:29 84° 287° (WNW) 18:00:58 437.445
KAITUO 1B 27 Jun 17:55:10 17:58:39 36° 73° (ENE) 18:02:08 145.475/437.950
STARS 27 Jun 18:15:12 18:19:39 73° 103° (ESE) 18:24:05 437.465
